This is the latest recevied weather packets stored in our database for station/object SP3OTE-2. If no packets are shown the sender has not sent any weather packets the latest 10 day(s).
| Time | Temp. | Humidity | Pressure | Rain* | Wind** | Luminosity | Snow |
|---|---|---|---|---|---|---|---|
| 1777981015 | 28.33° C | 28% | 1006.9 hPa | - | - | - | - |
| 1777980415 | 28.33° C | 28% | 1006.9 hPa | - | - | - | - |
| 1777979815 | 28.89° C | 28% | 1007.1 hPa | - | - | - | - |
| 1777979215 | 27.78° C | 29% | 1007 hPa | - | - | - | - |
| 1777978614 | 28.33° C | 28% | 1007.2 hPa | - | - | - | - |
| 1777978014 | 27.78° C | 29% | 1007.3 hPa | - | - | - | - |
| 1777977414 | 27.78° C | 30% | 1007.4 hPa | - | - | - | - |
| 1777976813 | 26.67° C | 31% | 1007.6 hPa | - | - | - | - |
| 1777976213 | 26.11° C | 31% | 1007.7 hPa | - | - | - | - |
| 1777975613 | 25.56° C | 32% | 1007.8 hPa | - | - | - | - |
| 1777975013 | 25° C | 32% | 1007.8 hPa | - | - | - | - |
| 1777974412 | 25° C | 33% | 1007.9 hPa | - | - | - | - |
| 1777973812 | 24.44° C | 35% | 1008.1 hPa | - | - | - | - |
| 1777973212 | 24.44° C | 34% | 1008.3 hPa | - | - | - | - |
| 1777972612 | 24.44° C | 34% | 1008.3 hPa | - | - | - | - |
| 1777972012 | 24.44° C | 34% | 1008.4 hPa | - | - | - | - |
| 1777971411 | 24.44° C | 34% | 1008.7 hPa | - | - | - | - |
| 1777970811 | 23.89° C | 35% | 1008.7 hPa | - | - | - | - |
| 1777970211 | 25° C | 34% | 1008.7 hPa | - | - | - | - |
| 1777969611 | 25° C | 35% | 1008.8 hPa | - | - | - | - |
| 1777969010 | 24.44° C | 37% | 1009 hPa | - | - | - | - |
| 1777968410 | 23.89° C | 37% | 1009 hPa | - | - | - | - |
| 1777967810 | 23.89° C | 36% | 1009 hPa | - | - | - | - |
| 1777967210 | 23.33° C | 39% | 1009.1 hPa | - | - | - | - |
| 1777966610 | 22.78° C | 41% | 1009.1 hPa | - | - | - | - |
* Rain since midnight (hover to see other rain measurements)
** Current wind speed in m/s (hover to see current wind gust speed)